OBJECT D, 65944

Orbit data source: Space-Track

You're viewing an Uncataloged Satellite

Recently launched and/or uncataloged satellites may have evolving metadata. Metadata may include but not limited to: Owner, Maufacturer, Bus, Motor, and Mission.

OBJECT D, 65944 is a satellite owned by CASC (CN) in SSO that was launched on Sat, 11 Oct 2025 UTC launched from the Yellow Sea Launch Area, China (YSLA). Unknown objects in Earth's orbit typically refer to objects detected orbiting the Earth but have not yet been identified or cataloged. These objects could be anything from previously untracked satellites, spent rocket stages, debris from satellite collisions, or even natural meteoroids temporarily captured by Earth's gravity.

Loading next visibility...
Identifier
65944, 2025-226D
Orbit
SSO
Country
Flag of CNCN / PRC
Related business
Manufacturer
CALT
Mission
Spacecraft
Bus & Motor
Unknown
Mass
1,000 kg wet, 1,000 kg dry
Launch date (UTC)
2025-10-11 (1 month ago)
Launch vehicle
Unknown
Launch site
Yellow Sea Launch Area, China (YSLA)
Object type
Unknown
Shape & HBR
Unknown shape, 1.1 m
Radar Cross Section
RCS unknown

Expand to show TLE details & history
Last TLE update: 1 day ago

TLE from 1 day ago
0 OBJECT D
1 65944U 25226D   25312.82225211  .05658951  00000-0  54171-1 0  9999
2 65944  97.6473  27.7511 0018414 289.0913  70.8351 15.62474495  4374
Epoch: 2025-11-08T19:44Z
TLE epoch observation values (Epoch: 2025-11-08T19:44:02.582Z)
Latitude
0.00007°
Longitude
43.49398°
Altitude
379.586 km
Speed
7.684 km/s
True Right ascension
01h 51m 00s
True Declination
0° 00' 00"
Sunlit
Object was in full shadow at epoch
Visualization orbit readout
Latitude
Unknown
Longitude
Unknown
Altitude
Unknown
Speed
Unknown
Apparent Right ascension
Unknown
Apparent Declination
Unknown
Sunlit
N/A
Visualization observer readout
Local Sidereal Time
03:01:56
Azimuth
Unknown
Elevation
Unknown
Doppler factor
Unknown
Orbital elements
Apogee altitude
389.872 km
Perigee altitude
364.992 km
Semi-major axis
6,755.569 km
Eccentricity
0.00184
Inclination
97.6473°
RAAN
27.7511°
Arg. of periapsis
289.0913°
True anomaly
71.03456°
Mean anomaly
70.8351°
Eccentric anomaly
70.93482°
Mean motion
3.90886 °/min
Orbital period
92.1 mins
BSTAR
0.054171
Loading maneuver chart data...
Computing Atmospheric mass density...
Loading historical data...
Loading historical data...
Loading historical data...
Loading historical data...
Loading historical data...
Loading historical data...
Loading historical data...
Other satellites on launch #226 in the year 2025 (2025-10-11 UTC)

Documentation

Showing up to 5 results
|